Year,Month,Day,Hour,Minute,Value (Times are PST for temperature in C)
2023,04,19,00,00,3.70
2023,04,19,00,01,3.70
2023,04,19,00,02,3.70
2023,04,19,00,03,3.70
2023,04,19,00,04,3.70
2023,04,19,00,05,3.70
2023,04,19,00,07,3.70
2023,04,19,00,08,3.60
2023,04,19,00,09,3.60
2023,04,19,00,10,3.60
2023,04,19,00,11,3.60
2023,04,19,00,12,3.60
2023,04,19,00,13,3.60
2023,04,19,00,15,3.60
2023,04,19,00,18,3.60
2023,04,19,00,19,3.50
2023,04,19,00,20,3.50
2023,04,19,00,22,3.50
2023,04,19,00,23,3.50
2023,04,19,00,24,3.50
2023,04,19,00,26,3.50
2023,04,19,00,27,3.40
2023,04,19,00,29,3.40
2023,04,19,00,30,3.40
2023,04,19,00,31,3.40
2023,04,19,00,33,3.40
2023,04,19,00,34,3.40
2023,04,19,00,35,3.40
2023,04,19,00,36,3.40
2023,04,19,00,38,3.40
2023,04,19,00,39,3.40
2023,04,19,00,40,3.40
2023,04,19,00,41,3.40
2023,04,19,00,42,3.40
2023,04,19,00,43,3.40
2023,04,19,00,44,3.40
2023,04,19,00,45,3.40
2023,04,19,00,46,3.40
2023,04,19,00,47,3.40
2023,04,19,00,49,3.40
2023,04,19,00,50,3.40
2023,04,19,00,52,3.40
2023,04,19,00,53,3.40
2023,04,19,00,55,3.40
2023,04,19,00,56,3.40
2023,04,19,00,59,3.50
2023,04,19,01,00,3.50
2023,04,19,01,01,3.50
2023,04,19,01,02,3.50
2023,04,19,01,03,3.50
2023,04,19,01,05,3.50
2023,04,19,01,07,3.50
2023,04,19,01,08,3.50
2023,04,19,01,09,3.50
2023,04,19,01,11,3.50
2023,04,19,01,12,3.50
2023,04,19,01,13,3.40
2023,04,19,01,14,3.40
2023,04,19,01,15,3.40
2023,04,19,01,16,3.40
2023,04,19,01,17,3.40
2023,04,19,01,19,3.40
2023,04,19,01,20,3.40
2023,04,19,01,21,3.40
2023,04,19,01,22,3.40
2023,04,19,01,23,3.40
2023,04,19,01,24,3.30
2023,04,19,01,25,3.30
2023,04,19,01,27,3.30
2023,04,19,01,28,3.30
2023,04,19,01,30,3.30
2023,04,19,01,31,3.30
2023,04,19,01,32,3.30
2023,04,19,01,33,3.30
2023,04,19,01,34,3.30
2023,04,19,01,35,3.30
2023,04,19,01,36,3.30
2023,04,19,01,38,3.30
2023,04,19,01,39,3.30
2023,04,19,01,40,3.30
2023,04,19,01,42,3.30
2023,04,19,01,43,3.30
2023,04,19,01,44,3.30
2023,04,19,01,45,3.40
2023,04,19,01,46,3.30
2023,04,19,01,48,3.40
2023,04,19,01,50,3.40
2023,04,19,01,51,3.40
2023,04,19,01,52,3.40
2023,04,19,01,53,3.40
2023,04,19,01,54,3.40
2023,04,19,01,55,3.40
2023,04,19,01,56,3.40
2023,04,19,01,57,3.40
2023,04,19,01,59,3.40
2023,04,19,02,00,3.40
2023,04,19,02,01,3.40
2023,04,19,02,02,3.40
2023,04,19,02,04,3.40
2023,04,19,02,05,3.40
2023,04,19,02,06,3.40
2023,04,19,02,07,3.40
2023,04,19,02,08,3.40
2023,04,19,02,10,3.40
2023,04,19,02,13,3.40
2023,04,19,02,15,3.40
2023,04,19,02,16,3.40
2023,04,19,02,17,3.40
2023,04,19,02,18,3.40
2023,04,19,02,19,3.40
2023,04,19,02,20,3.40
2023,04,19,02,21,3.40
2023,04,19,02,22,3.40
2023,04,19,02,23,3.40
2023,04,19,02,24,3.40
2023,04,19,02,25,3.40
2023,04,19,02,26,3.40
2023,04,19,02,27,3.40
2023,04,19,02,28,3.30
2023,04,19,02,29,3.30
2023,04,19,02,30,3.30
2023,04,19,02,31,3.30
2023,04,19,02,32,3.30
2023,04,19,02,33,3.30
2023,04,19,02,34,3.30
2023,04,19,02,35,3.30
2023,04,19,02,36,3.30
2023,04,19,02,37,3.30
2023,04,19,02,38,3.30
2023,04,19,02,40,3.30
2023,04,19,02,41,3.30
2023,04,19,02,42,3.30
2023,04,19,02,43,3.30
2023,04,19,02,44,3.30
2023,04,19,02,45,3.30
2023,04,19,02,46,3.30
2023,04,19,02,47,3.30
2023,04,19,02,48,3.30
2023,04,19,02,49,3.30
2023,04,19,02,50,3.30
2023,04,19,02,51,3.30
2023,04,19,02,52,3.30
2023,04,19,02,54,3.30
2023,04,19,02,56,3.30
2023,04,19,02,58,3.30
2023,04,19,03,00,3.30
2023,04,19,03,01,3.30
2023,04,19,03,02,3.30
2023,04,19,03,03,3.30
2023,04,19,03,04,3.30
2023,04,19,03,06,3.30
2023,04,19,03,07,3.30
2023,04,19,03,08,3.30
2023,04,19,03,09,3.30
2023,04,19,03,11,3.30
2023,04,19,03,12,3.30
2023,04,19,03,14,3.30
2023,04,19,03,15,3.30
2023,04,19,03,16,3.30
2023,04,19,03,17,3.30
2023,04,19,03,18,3.30
2023,04,19,03,20,3.30
2023,04,19,03,21,3.30
2023,04,19,03,22,3.30
2023,04,19,03,23,3.30
2023,04,19,03,25,3.30
2023,04,19,03,27,3.30
2023,04,19,03,28,3.30
2023,04,19,03,29,3.20
2023,04,19,03,30,3.20
2023,04,19,03,31,3.20
2023,04,19,03,32,3.20
2023,04,19,03,33,3.20
2023,04,19,03,34,3.20
2023,04,19,03,35,3.20
2023,04,19,03,36,3.20
2023,04,19,03,37,3.20
2023,04,19,03,38,3.20
2023,04,19,03,39,3.20
2023,04,19,03,40,3.20
2023,04,19,03,43,3.20
2023,04,19,03,45,3.20
2023,04,19,03,47,3.20
2023,04,19,03,49,3.20
2023,04,19,03,51,3.20
2023,04,19,03,52,3.20
2023,04,19,03,53,3.20
2023,04,19,03,55,3.20
2023,04,19,03,57,3.20
2023,04,19,03,58,3.20
2023,04,19,03,59,3.20
2023,04,19,04,00,3.20
2023,04,19,04,01,3.20
2023,04,19,04,02,3.30
2023,04,19,04,03,3.30
2023,04,19,04,05,3.30
2023,04,19,04,06,3.30
2023,04,19,04,07,3.30
2023,04,19,04,08,3.30
2023,04,19,04,09,3.30
2023,04,19,04,11,3.30
2023,04,19,04,12,3.30
2023,04,19,04,13,3.30
2023,04,19,04,14,3.30
2023,04,19,04,15,3.30
2023,04,19,04,16,3.30
2023,04,19,04,17,3.30
2023,04,19,04,18,3.30
2023,04,19,04,20,3.30
2023,04,19,04,21,3.30
2023,04,19,04,22,3.30
2023,04,19,04,23,3.30
2023,04,19,04,24,3.30
2023,04,19,04,25,3.30
2023,04,19,04,26,3.30
2023,04,19,04,28,3.30
2023,04,19,04,29,3.20
2023,04,19,04,30,3.20
2023,04,19,04,31,3.20
2023,04,19,04,32,3.20
2023,04,19,04,33,3.20
2023,04,19,04,34,3.20
2023,04,19,04,35,3.20
2023,04,19,04,37,3.20
2023,04,19,04,38,3.20
2023,04,19,04,39,3.20
2023,04,19,04,40,3.20
2023,04,19,04,42,3.20
2023,04,19,04,43,3.20
2023,04,19,04,44,3.20
2023,04,19,04,46,3.20
2023,04,19,04,47,3.20
2023,04,19,04,48,3.20
2023,04,19,04,49,3.20
2023,04,19,04,50,3.20
2023,04,19,04,51,3.20
2023,04,19,04,52,3.20
2023,04,19,04,53,3.20
2023,04,19,04,54,3.20
2023,04,19,04,56,3.20
2023,04,19,04,57,3.20
2023,04,19,04,59,3.30
2023,04,19,05,00,3.30
2023,04,19,05,01,3.30
2023,04,19,05,02,3.30
2023,04,19,05,03,3.30
2023,04,19,05,04,3.30
2023,04,19,05,05,3.30
2023,04,19,05,06,3.30
2023,04,19,05,08,3.30
2023,04,19,05,09,3.30
2023,04,19,05,10,3.30
2023,04,19,05,11,3.30
2023,04,19,05,12,3.30
2023,04,19,05,14,3.30
2023,04,19,05,15,3.40
2023,04,19,05,16,3.40
2023,04,19,05,17,3.40
2023,04,19,05,18,3.40
2023,04,19,05,19,3.40
2023,04,19,05,20,3.40
2023,04,19,05,21,3.40
2023,04,19,05,22,3.40
2023,04,19,05,23,3.40
2023,04,19,05,24,3.40
2023,04,19,05,25,3.40
2023,04,19,05,26,3.40
2023,04,19,05,27,3.40
2023,04,19,05,28,3.40
2023,04,19,05,29,3.40
2023,04,19,05,30,3.40
2023,04,19,05,31,3.40
2023,04,19,05,32,3.40
2023,04,19,05,33,3.40
2023,04,19,05,34,3.40
2023,04,19,05,35,3.40
2023,04,19,05,36,3.40
2023,04,19,05,37,3.40
2023,04,19,05,38,3.40
2023,04,19,05,39,3.40
2023,04,19,05,40,3.40
2023,04,19,05,41,3.40
2023,04,19,05,42,3.40
2023,04,19,05,43,3.40
2023,04,19,05,44,3.50
2023,04,19,05,45,3.50
2023,04,19,05,46,3.50
2023,04,19,05,47,3.50
2023,04,19,05,48,3.50
2023,04,19,05,49,3.50
2023,04,19,05,50,3.50
2023,04,19,05,51,3.50
2023,04,19,05,52,3.50
2023,04,19,05,53,3.50
2023,04,19,05,54,3.50
2023,04,19,05,55,3.40
2023,04,19,05,56,3.40
2023,04,19,05,57,3.40
2023,04,19,05,58,3.40
2023,04,19,05,59,3.40
2023,04,19,06,00,3.40
2023,04,19,06,01,3.40
2023,04,19,06,02,3.40
2023,04,19,06,03,3.40
2023,04,19,06,04,3.40
2023,04,19,06,05,3.30
2023,04,19,06,06,3.30
2023,04,19,06,07,3.30
2023,04,19,06,08,3.30
2023,04,19,06,09,3.30
2023,04,19,06,10,3.30
2023,04,19,06,11,3.30
2023,04,19,06,12,3.30
2023,04,19,06,13,3.30
2023,04,19,06,14,3.30
2023,04,19,06,15,3.30
2023,04,19,06,16,3.30
2023,04,19,06,17,3.30
2023,04,19,06,18,3.30
2023,04,19,06,19,3.30
2023,04,19,06,20,3.30
2023,04,19,06,21,3.30
2023,04,19,06,22,3.30
2023,04,19,06,23,3.30
2023,04,19,06,24,3.30
2023,04,19,06,25,3.30
2023,04,19,06,26,3.30
2023,04,19,06,27,3.30
2023,04,19,06,28,3.30
2023,04,19,06,29,3.30
2023,04,19,06,30,3.30
2023,04,19,06,31,3.30
2023,04,19,06,32,3.30
2023,04,19,06,33,3.30
2023,04,19,06,34,3.30
2023,04,19,06,35,3.30
2023,04,19,06,36,3.30
2023,04,19,06,37,3.30
2023,04,19,06,38,3.30
2023,04,19,06,39,3.30
2023,04,19,06,40,3.30
2023,04,19,06,41,3.30
2023,04,19,06,42,3.30
2023,04,19,06,43,3.30
2023,04,19,06,44,3.30
2023,04,19,06,45,3.30
2023,04,19,06,46,3.30
2023,04,19,06,47,3.30
2023,04,19,06,48,3.30
2023,04,19,06,49,3.30
2023,04,19,06,50,3.30
2023,04,19,06,51,3.30
2023,04,19,06,52,3.30
2023,04,19,06,53,3.30
2023,04,19,06,54,3.30
2023,04,19,06,55,3.40
2023,04,19,06,56,3.40
2023,04,19,06,57,3.40
2023,04,19,06,58,3.40
2023,04,19,06,59,3.40
2023,04,19,07,00,3.40
2023,04,19,07,01,3.40
2023,04,19,07,02,3.50
2023,04,19,07,03,3.50
2023,04,19,07,04,3.50
2023,04,19,07,05,3.60
2023,04,19,07,06,3.60
2023,04,19,07,07,3.60
2023,04,19,07,08,3.60
2023,04,19,07,09,3.60
2023,04,19,07,10,3.60
2023,04,19,07,11,3.60
2023,04,19,07,12,3.60
2023,04,19,07,13,3.60
2023,04,19,07,14,3.60
2023,04,19,07,15,3.60
2023,04,19,07,16,3.60
2023,04,19,07,17,3.60
2023,04,19,07,18,3.60
2023,04,19,07,19,3.70
2023,04,19,07,20,3.70
2023,04,19,07,21,3.70
2023,04,19,07,22,3.70
2023,04,19,07,23,3.70
2023,04,19,07,24,3.70
2023,04,19,07,25,3.70
2023,04,19,07,26,3.70
2023,04,19,07,27,3.70
2023,04,19,07,28,3.70
2023,04,19,07,29,3.70
2023,04,19,07,30,3.80
2023,04,19,07,31,3.80
2023,04,19,07,32,3.80
2023,04,19,07,33,3.80
2023,04,19,07,34,3.80
2023,04,19,07,35,3.80
2023,04,19,07,36,3.80
2023,04,19,07,37,3.80
2023,04,19,07,38,3.80
2023,04,19,07,39,3.80
2023,04,19,07,40,3.80
2023,04,19,07,41,3.80
2023,04,19,07,42,3.80
2023,04,19,07,43,3.80
2023,04,19,07,44,3.80
2023,04,19,07,45,3.80
2023,04,19,07,46,3.80
2023,04,19,07,47,3.80
2023,04,19,07,48,3.80
2023,04,19,07,49,3.80
2023,04,19,07,50,3.80
2023,04,19,07,51,3.80
2023,04,19,07,52,3.80
2023,04,19,07,53,3.70
2023,04,19,07,54,3.70
2023,04,19,07,55,3.70
2023,04,19,07,56,3.70
2023,04,19,07,57,3.70
2023,04,19,07,58,3.80
2023,04,19,07,59,3.80
2023,04,19,08,00,3.80
2023,04,19,08,01,3.80
2023,04,19,08,02,3.80
2023,04,19,08,03,3.80
2023,04,19,08,04,3.70
2023,04,19,08,05,3.70
2023,04,19,08,06,3.70
2023,04,19,08,07,3.70
2023,04,19,08,08,3.70
2023,04,19,08,09,3.70
2023,04,19,08,10,3.70
2023,04,19,08,11,3.70
2023,04,19,08,12,3.70
2023,04,19,08,13,3.70
2023,04,19,08,14,3.70
2023,04,19,08,15,3.70
2023,04,19,08,16,3.70
2023,04,19,08,17,3.70
2023,04,19,08,18,3.80
2023,04,19,08,19,3.80
2023,04,19,08,20,3.80
2023,04,19,08,21,3.80
2023,04,19,08,22,3.80
2023,04,19,08,23,3.80
2023,04,19,08,24,3.80
2023,04,19,08,25,3.80
2023,04,19,08,26,3.80
2023,04,19,08,27,3.80
2023,04,19,08,28,3.80
2023,04,19,08,29,3.80
2023,04,19,08,30,3.80
2023,04,19,08,31,3.80
2023,04,19,08,32,3.80
2023,04,19,08,33,3.80
2023,04,19,08,34,3.80
2023,04,19,08,35,3.80
2023,04,19,08,36,3.80
2023,04,19,08,37,3.80
2023,04,19,08,38,3.80
2023,04,19,08,39,3.80
2023,04,19,08,40,3.80
2023,04,19,08,41,3.80
2023,04,19,08,42,3.90
2023,04,19,08,43,3.80
2023,04,19,08,44,3.80
2023,04,19,08,45,3.80
2023,04,19,08,46,3.80
2023,04,19,08,47,3.80
2023,04,19,08,48,3.80
2023,04,19,08,49,3.80
2023,04,19,08,50,3.80
2023,04,19,08,51,3.80
2023,04,19,08,52,3.80
2023,04,19,08,53,3.80
2023,04,19,08,54,3.80
2023,04,19,08,55,3.90
2023,04,19,08,56,3.90
2023,04,19,08,57,3.90
2023,04,19,08,58,3.90
2023,04,19,08,59,3.90
2023,04,19,09,00,3.90
2023,04,19,09,01,3.90
2023,04,19,09,02,4.00
2023,04,19,09,03,4.00
2023,04,19,09,04,4.00
2023,04,19,09,05,4.00
2023,04,19,09,06,4.00
2023,04,19,09,07,3.90
2023,04,19,09,08,3.90
2023,04,19,09,09,3.90
2023,04,19,09,10,4.00
2023,04,19,09,11,4.00
2023,04,19,09,12,4.10
2023,04,19,09,13,4.10
2023,04,19,09,14,4.10
2023,04,19,09,15,4.10
2023,04,19,09,16,4.20
2023,04,19,09,17,4.20
2023,04,19,09,18,4.20
2023,04,19,09,19,4.20
2023,04,19,09,20,4.30
2023,04,19,09,21,4.30
2023,04,19,09,22,4.30
2023,04,19,09,23,4.30
2023,04,19,09,24,4.30
2023,04,19,09,25,4.40
2023,04,19,09,26,4.40
2023,04,19,09,27,4.50
2023,04,19,09,28,4.60
2023,04,19,09,29,4.60
2023,04,19,09,30,4.70
2023,04,19,09,31,4.70
2023,04,19,09,32,4.70
2023,04,19,09,33,4.80
2023,04,19,09,34,4.80
2023,04,19,09,35,4.80
2023,04,19,09,36,4.90
2023,04,19,09,37,5.00
2023,04,19,09,38,5.10
2023,04,19,09,39,5.10
2023,04,19,09,40,5.20
2023,04,19,09,41,5.20
2023,04,19,09,42,5.20
2023,04,19,09,43,5.30
2023,04,19,09,44,5.40
2023,04,19,09,45,5.50
2023,04,19,09,46,5.60
2023,04,19,09,47,5.60
2023,04,19,09,48,5.60
2023,04,19,09,49,5.70
2023,04,19,09,50,5.70
2023,04,19,09,51,5.70
2023,04,19,09,52,5.70
2023,04,19,09,53,5.70
2023,04,19,09,54,5.70
2023,04,19,09,55,5.70
2023,04,19,09,56,5.70
2023,04,19,09,57,5.80
2023,04,19,09,58,5.80
2023,04,19,09,59,5.90
2023,04,19,10,00,5.90
2023,04,19,10,01,5.90
2023,04,19,10,02,5.90
2023,04,19,10,03,5.90
2023,04,19,10,04,5.90
2023,04,19,10,05,5.90
2023,04,19,10,06,6.00
2023,04,19,10,07,6.00
2023,04,19,10,08,6.00
2023,04,19,10,09,6.00
2023,04,19,10,10,6.00
2023,04,19,10,11,6.10
2023,04,19,10,12,6.10
2023,04,19,10,13,6.20
2023,04,19,10,14,6.20
2023,04,19,10,15,6.30
2023,04,19,10,16,6.30
2023,04,19,10,17,6.40
2023,04,19,10,18,6.40
2023,04,19,10,19,6.40
2023,04,19,10,20,6.40
2023,04,19,10,21,6.50
2023,04,19,10,22,6.50
2023,04,19,10,23,6.40
2023,04,19,10,24,6.40
2023,04,19,10,25,6.40
2023,04,19,10,26,6.40
2023,04,19,10,27,6.30
2023,04,19,10,28,6.30
2023,04,19,10,29,6.30
2023,04,19,10,30,6.30
2023,04,19,10,31,6.30
2023,04,19,10,32,6.30
2023,04,19,10,33,6.30
2023,04,19,10,34,6.30
2023,04,19,10,35,6.40
2023,04,19,10,36,6.40
2023,04,19,10,37,6.30
2023,04,19,10,38,6.30
2023,04,19,10,39,6.40
2023,04,19,10,40,6.40
2023,04,19,10,41,6.40
2023,04,19,10,42,6.30
2023,04,19,10,43,6.30
2023,04,19,10,44,6.30
2023,04,19,10,45,6.30
2023,04,19,10,46,6.30
2023,04,19,10,47,6.40
2023,04,19,10,48,6.40
2023,04,19,10,49,6.40
2023,04,19,10,50,6.40
2023,04,19,10,51,6.40
2023,04,19,10,52,6.40
2023,04,19,10,53,6.40
2023,04,19,10,54,6.40
2023,04,19,10,55,6.40
2023,04,19,10,56,6.30
2023,04,19,10,57,6.30
2023,04,19,10,58,6.30
2023,04,19,10,59,6.30
2023,04,19,11,00,6.30
2023,04,19,11,01,6.30
2023,04,19,11,02,6.40
2023,04,19,11,03,6.40
2023,04,19,11,04,6.40
2023,04,19,11,05,6.50
2023,04,19,11,06,6.60
2023,04,19,11,07,6.70
2023,04,19,11,08,6.80
2023,04,19,11,09,6.80
2023,04,19,11,10,6.90
2023,04,19,11,11,6.90
2023,04,19,11,12,6.90
2023,04,19,11,13,6.90
2023,04,19,11,14,7.00
2023,04,19,11,15,7.00
2023,04,19,11,16,7.20
2023,04,19,11,17,7.30
2023,04,19,11,18,7.40
2023,04,19,11,19,7.40
2023,04,19,11,20,7.40
2023,04,19,11,21,7.60
2023,04,19,11,22,7.60
2023,04,19,11,23,7.70
2023,04,19,11,24,7.80
2023,04,19,11,25,7.90
2023,04,19,11,26,7.90
2023,04,19,11,27,7.90
2023,04,19,11,28,8.00
2023,04,19,11,29,8.00
2023,04,19,11,30,8.10
2023,04,19,11,31,8.10
2023,04,19,11,32,8.20
2023,04,19,11,33,8.20
2023,04,19,11,34,8.20
2023,04,19,11,35,8.20
2023,04,19,11,36,8.20
2023,04,19,11,37,8.30
2023,04,19,11,38,8.30
2023,04,19,11,39,8.40
2023,04,19,11,40,8.50
2023,04,19,11,41,8.60
2023,04,19,11,42,8.70
2023,04,19,11,43,8.80
2023,04,19,11,44,8.80
2023,04,19,11,45,8.80
2023,04,19,11,46,8.80
2023,04,19,11,47,8.80
2023,04,19,11,48,8.70
2023,04,19,11,49,8.70
2023,04,19,11,50,8.60
2023,04,19,11,51,8.50
2023,04,19,11,52,8.50
2023,04,19,11,53,8.50
2023,04,19,11,54,8.50
2023,04,19,11,55,8.50
2023,04,19,11,56,8.50
2023,04,19,11,57,8.50
2023,04,19,11,58,8.40
2023,04,19,11,59,8.30
2023,04,19,12,00,8.20
2023,04,19,12,01,8.10
2023,04,19,12,02,8.00
2023,04,19,12,03,7.90
2023,04,19,12,04,7.80
2023,04,19,12,05,7.60
2023,04,19,12,06,7.50
2023,04,19,12,07,7.40
2023,04,19,12,08,7.30
2023,04,19,12,09,7.20
2023,04,19,12,10,7.10
2023,04,19,12,11,7.10
2023,04,19,12,12,7.10
2023,04,19,12,13,7.00
2023,04,19,12,14,7.10
2023,04,19,12,15,7.10
2023,04,19,12,16,7.20
2023,04,19,12,17,7.30
2023,04,19,12,18,7.40
2023,04,19,12,19,7.60
2023,04,19,12,20,7.70
2023,04,19,12,21,7.90
2023,04,19,12,22,8.00
2023,04,19,12,24,8.20
2023,04,19,12,25,8.20
2023,04,19,12,26,8.30
2023,04,19,12,28,8.40
2023,04,19,12,29,8.40
2023,04,19,12,30,8.40
2023,04,19,12,31,8.50
2023,04,19,12,33,8.70
2023,04,19,12,34,8.70
2023,04,19,12,35,8.80
2023,04,19,12,36,8.80
2023,04,19,12,37,8.80
2023,04,19,12,39,9.10
2023,04,19,12,40,9.20
2023,04,19,12,41,9.30
2023,04,19,12,43,9.40
2023,04,19,12,45,9.50
2023,04,19,12,46,9.60
2023,04,19,12,48,9.60
2023,04,19,12,49,9.60
2023,04,19,12,50,9.50
2023,04,19,12,51,9.50
2023,04,19,12,52,9.50
2023,04,19,12,53,9.50
2023,04,19,12,54,9.50
2023,04,19,12,55,9.50
2023,04,19,12,56,9.40
2023,04,19,12,57,9.40
2023,04,19,12,58,9.30
2023,04,19,12,59,9.20
2023,04,19,13,00,9.20
2023,04,19,13,01,9.20
2023,04,19,13,02,9.10
2023,04,19,13,04,8.90
2023,04,19,13,06,8.80
2023,04,19,13,07,8.80
2023,04,19,13,08,8.90
2023,04,19,13,09,8.90
2023,04,19,13,10,8.90
2023,04,19,13,11,8.80
2023,04,19,13,12,8.90
2023,04,19,13,13,8.90
2023,04,19,13,14,8.90
2023,04,19,13,15,8.80
2023,04,19,13,16,8.80
2023,04,19,13,17,8.80
2023,04,19,13,18,8.80
2023,04,19,13,19,8.70
2023,04,19,13,20,8.70
2023,04,19,13,22,8.70
2023,04,19,13,23,8.70
2023,04,19,13,24,8.80
2023,04,19,13,25,8.80
2023,04,19,13,27,8.90
2023,04,19,13,28,9.10
2023,04,19,13,29,9.20
2023,04,19,13,30,9.30
2023,04,19,13,31,9.40
2023,04,19,13,32,9.50
2023,04,19,13,33,9.60
2023,04,19,13,35,9.60
2023,04,19,13,36,9.60
2023,04,19,13,37,9.60
2023,04,19,13,39,9.70
2023,04,19,13,41,9.70
2023,04,19,13,42,9.80
2023,04,19,13,44,9.80
2023,04,19,13,45,9.80
2023,04,19,13,46,9.80
2023,04,19,13,47,9.90
2023,04,19,13,48,10.00
2023,04,19,13,49,10.10
2023,04,19,13,50,10.10
2023,04,19,13,51,10.10
2023,04,19,13,52,10.10
2023,04,19,13,53,9.90
2023,04,19,13,54,9.80
2023,04,19,13,55,9.80
2023,04,19,13,56,9.70
2023,04,19,13,57,9.70
2023,04,19,13,58,9.60
2023,04,19,13,59,9.60
2023,04,19,14,00,9.60
2023,04,19,14,01,9.60
2023,04,19,14,02,9.60
2023,04,19,14,04,9.70
2023,04,19,14,05,9.80
2023,04,19,14,07,9.90
2023,04,19,14,08,9.90
2023,04,19,14,09,9.90
2023,04,19,14,10,10.00
2023,04,19,14,11,10.10
2023,04,19,14,12,10.10
2023,04,19,14,13,10.10
2023,04,19,14,14,10.10
2023,04,19,14,15,10.10
2023,04,19,14,17,10.00
2023,04,19,14,18,10.10
2023,04,19,14,20,10.10
2023,04,19,14,22,10.10
2023,04,19,14,23,10.10
2023,04,19,14,26,9.90
2023,04,19,14,27,9.80
2023,04,19,14,28,9.70
2023,04,19,14,30,9.60
2023,04,19,14,31,9.40
2023,04,19,14,33,9.10
2023,04,19,14,34,9.10
2023,04,19,14,35,9.10
2023,04,19,14,36,9.10
2023,04,19,14,38,9.10
2023,04,19,14,39,9.10
2023,04,19,14,40,9.10
2023,04,19,14,42,8.90
2023,04,19,14,43,8.80
2023,04,19,14,45,8.80
2023,04,19,14,47,8.80
2023,04,19,14,48,8.80
2023,04,19,14,50,8.70
2023,04,19,14,51,8.70
2023,04,19,14,53,8.70
2023,04,19,14,54,8.70
2023,04,19,14,55,8.70
2023,04,19,14,56,8.70
2023,04,19,14,57,8.80
2023,04,19,14,58,8.80
2023,04,19,14,59,8.90
2023,04,19,15,00,9.10
2023,04,19,15,02,9.30
2023,04,19,15,04,9.50
2023,04,19,15,05,9.70
2023,04,19,15,06,9.80
2023,04,19,15,07,9.90
2023,04,19,15,08,10.10
2023,04,19,15,09,10.10
2023,04,19,15,10,10.20
2023,04,19,15,11,10.30
2023,04,19,15,12,10.30
2023,04,19,15,13,10.40
2023,04,19,15,14,10.50
2023,04,19,15,15,10.50
2023,04,19,15,16,10.60
2023,04,19,15,17,10.50
2023,04,19,15,18,10.40
2023,04,19,15,19,10.30
2023,04,19,15,20,10.30
2023,04,19,15,21,10.20
2023,04,19,15,22,10.20
2023,04,19,15,23,10.10
2023,04,19,15,24,10.10
2023,04,19,15,25,10.10
2023,04,19,15,27,10.10
2023,04,19,15,28,10.10
2023,04,19,15,30,10.10
2023,04,19,15,31,10.10
2023,04,19,15,32,10.20
2023,04,19,15,33,10.20
2023,04,19,15,34,10.20
2023,04,19,15,35,10.10
2023,04,19,15,36,10.10
2023,04,19,15,37,10.10
2023,04,19,15,38,9.90
2023,04,19,15,39,9.80
2023,04,19,15,40,9.80
2023,04,19,15,42,9.60
2023,04,19,15,44,9.20
2023,04,19,15,45,9.10
2023,04,19,15,47,9.00
2023,04,19,15,49,8.90
2023,04,19,15,50,8.90
2023,04,19,15,51,8.90
2023,04,19,15,52,8.90
2023,04,19,15,53,9.00
2023,04,19,15,54,9.00
2023,04,19,15,55,9.00
2023,04,19,15,56,8.90
2023,04,19,15,57,8.90
2023,04,19,15,58,8.90
2023,04,19,15,59,8.90
2023,04,19,16,00,9.00
2023,04,19,16,01,8.90
2023,04,19,16,02,8.90
2023,04,19,16,03,8.90
2023,04,19,16,05,8.80
2023,04,19,16,06,8.80
2023,04,19,16,07,8.80
2023,04,19,16,09,8.90
2023,04,19,16,10,8.90
2023,04,19,16,11,8.80
2023,04,19,16,12,8.80
2023,04,19,16,13,8.80
2023,04,19,16,14,8.80
2023,04,19,16,15,8.80
2023,04,19,16,16,8.80
2023,04,19,16,18,9.00
2023,04,19,16,19,9.20
2023,04,19,16,20,9.20
2023,04,19,16,21,9.30
2023,04,19,16,22,9.40
2023,04,19,16,23,9.40
2023,04,19,16,24,9.40
2023,04,19,16,26,9.40
2023,04,19,16,27,9.40
2023,04,19,16,29,9.40
2023,04,19,16,30,9.40
2023,04,19,16,31,9.40
2023,04,19,16,32,9.40
2023,04,19,16,33,9.40
2023,04,19,16,34,9.40
2023,04,19,16,36,9.30
2023,04,19,16,37,9.30
2023,04,19,16,38,9.30
2023,04,19,16,39,9.30
2023,04,19,16,40,9.30
2023,04,19,16,41,9.30
2023,04,19,16,42,9.30
2023,04,19,16,43,9.30
2023,04,19,16,44,9.30
2023,04,19,16,45,9.30
2023,04,19,16,47,9.20
2023,04,19,16,49,9.20
2023,04,19,16,50,9.20
2023,04,19,16,52,9.20
2023,04,19,16,53,9.20
2023,04,19,16,54,9.20
2023,04,19,16,55,9.30
2023,04,19,16,56,9.20
2023,04,19,16,58,9.20
2023,04,19,16,59,9.20
2023,04,19,17,00,9.20
2023,04,19,17,01,9.20
2023,04,19,17,03,9.30
2023,04,19,17,04,9.40
2023,04,19,17,05,9.50
2023,04,19,17,06,9.60
2023,04,19,17,07,9.60
2023,04,19,17,08,9.60
2023,04,19,17,09,9.50
2023,04,19,17,10,9.40
2023,04,19,17,11,9.40
2023,04,19,17,12,9.30
2023,04,19,17,13,9.30
2023,04,19,17,14,9.30
2023,04,19,17,15,9.30
2023,04,19,17,16,9.30
2023,04,19,17,19,9.30
2023,04,19,17,20,9.40
2023,04,19,17,21,9.40
2023,04,19,17,22,9.40
2023,04,19,17,23,9.30
2023,04,19,17,24,9.30
2023,04,19,17,25,9.20
2023,04,19,17,26,9.10
2023,04,19,17,27,9.00
2023,04,19,17,29,8.80
2023,04,19,17,30,8.70
2023,04,19,17,31,8.70
2023,04,19,17,32,8.60
2023,04,19,17,33,8.50
2023,04,19,17,34,8.40
2023,04,19,17,35,8.40
2023,04,19,17,36,8.30
2023,04,19,17,37,8.30
2023,04,19,17,38,8.30
2023,04,19,17,39,8.20
2023,04,19,17,40,8.20
2023,04,19,17,41,8.20
2023,04,19,17,42,8.20
2023,04,19,17,43,8.10
2023,04,19,17,45,8.10
2023,04,19,17,46,8.20
2023,04,19,17,47,8.20
2023,04,19,17,48,8.20
2023,04,19,17,50,8.30
2023,04,19,17,52,8.30
2023,04,19,17,53,8.40
2023,04,19,17,54,8.40
2023,04,19,17,56,8.40
2023,04,19,17,58,8.30
2023,04,19,17,59,8.30
2023,04,19,18,00,8.30
2023,04,19,18,01,8.30
2023,04,19,18,02,8.30
2023,04,19,18,03,8.30
2023,04,19,18,04,8.30
2023,04,19,18,05,8.30
2023,04,19,18,06,8.30
2023,04,19,18,07,8.30
2023,04,19,18,08,8.30
2023,04,19,18,09,8.30
2023,04,19,18,10,8.30
2023,04,19,18,11,8.20
2023,04,19,18,12,8.10
2023,04,19,18,13,8.10
2023,04,19,18,14,8.00
2023,04,19,18,15,7.90
2023,04,19,18,16,7.80
2023,04,19,18,17,7.80
2023,04,19,18,18,7.70
2023,04,19,18,19,7.60
2023,04,19,18,20,7.60
2023,04,19,18,22,7.40
2023,04,19,18,24,7.30
2023,04,19,18,25,7.20
2023,04,19,18,26,7.20
2023,04,19,18,28,7.00
2023,04,19,18,30,6.90
2023,04,19,18,31,6.80
2023,04,19,18,32,6.70
2023,04,19,18,33,6.70
2023,04,19,18,34,6.70
2023,04,19,18,35,6.60
2023,04,19,18,36,6.60
2023,04,19,18,37,6.60
2023,04,19,18,38,6.60
2023,04,19,18,39,6.60
2023,04,19,18,40,6.50
2023,04,19,18,42,6.60
2023,04,19,18,44,6.60
2023,04,19,18,45,6.60
2023,04,19,18,46,6.60
2023,04,19,18,47,6.60
2023,04,19,18,48,6.60
2023,04,19,18,50,6.60
2023,04,19,18,51,6.60
2023,04,19,18,52,6.60
2023,04,19,18,53,6.60
2023,04,19,18,54,6.60
2023,04,19,18,55,6.60
2023,04,19,18,56,6.60
2023,04,19,18,57,6.60
2023,04,19,18,58,6.60
2023,04,19,19,00,6.60
2023,04,19,19,02,6.70
2023,04,19,19,03,6.70
2023,04,19,19,04,6.70
2023,04,19,19,05,6.70
2023,04,19,19,06,6.70
2023,04,19,19,07,6.60
2023,04,19,19,08,6.60
2023,04,19,19,09,6.60
2023,04,19,19,10,6.60
2023,04,19,19,12,6.60
2023,04,19,19,13,6.60
2023,04,19,19,14,6.60
2023,04,19,19,15,6.50
2023,04,19,19,17,6.50
2023,04,19,19,18,6.40
2023,04,19,19,20,6.40
2023,04,19,19,22,6.40
2023,04,19,19,23,6.40
2023,04,19,19,24,6.40
2023,04,19,19,25,6.30
2023,04,19,19,26,6.30
2023,04,19,19,28,6.30
2023,04,19,19,29,6.20
2023,04,19,19,30,6.20
2023,04,19,19,31,6.20
2023,04,19,19,32,6.20
2023,04,19,19,34,6.10
2023,04,19,19,35,6.10
2023,04,19,19,36,6.10
2023,04,19,19,37,6.10
2023,04,19,19,39,6.00
2023,04,19,19,40,5.90
2023,04,19,19,41,5.90
2023,04,19,19,43,5.90
2023,04,19,19,45,5.80
2023,04,19,19,46,5.80
2023,04,19,19,47,5.80
2023,04,19,19,48,5.80
2023,04,19,19,49,5.80
2023,04,19,19,50,5.80
2023,04,19,19,51,5.80
2023,04,19,19,52,5.80
2023,04,19,19,53,5.70
2023,04,19,19,54,5.80
2023,04,19,19,55,5.80
2023,04,19,19,56,5.80
2023,04,19,19,57,5.70
2023,04,19,19,59,5.70
2023,04,19,20,00,5.70
2023,04,19,20,01,5.70
2023,04,19,20,02,5.70
2023,04,19,20,04,5.70
2023,04,19,20,05,5.70
2023,04,19,20,07,5.70
2023,04,19,20,08,5.60
2023,04,19,20,10,5.60
2023,04,19,20,11,5.60
2023,04,19,20,13,5.60
2023,04,19,20,14,5.60
2023,04,19,20,15,5.60
2023,04,19,20,16,5.60
2023,04,19,20,17,5.50
2023,04,19,20,19,5.50
2023,04,19,20,20,5.50
2023,04,19,20,21,5.50
2023,04,19,20,22,5.40
2023,04,19,20,23,5.40
2023,04,19,20,24,5.40
2023,04,19,20,25,5.40